Regional Weather Roundup
Issued by NWS Cleveland, OH

Home | Current Version | Previous Version | Graphics & Text | Print | Product List | Glossary On
Versions: 1 2 3 4 5 6 7 8 9 10 11 12 13 14 15 16 17 18 19 20 21 22 23 24 25 26 27 28 29 30 31 32 33 34 35 36 37 38 39 40 41 42 43 44 45 46 47 48 49 50
000
ASUS41 KCLE 272300
RWRCLE
OHIO REGIONAL WEATHER ROUNDUP
NATIONAL WEATHER SERVICE WILMINGTON, OH
700 PM EDT THU JUL 27 2017

NOTE: "FAIR" INDICATES FEW OR NO CLOUDS BELOW 12,000 FEET WITH NO
SIGNIFICANT WEATHER AND/OR OBSTRUCTIONS TO VISIBILITY.

OHZ001>008-015>018-024>027-034-035-043-044-280000-
   NORTHWEST OHIO

CITY           SKY/WX    TMP DP  RH WIND       PRES   REMARKS
DEFIANCE       FAIR      79  71  76 E6        29.87S
FINDLAY        FAIR      81  68  64 NE10      29.87R
TOLEDO EXPRESS FAIR      82  63  52 NE12      29.87R
TOLEDO EXEC    FAIR      82  65  56 E7        29.88S
LIMA           PTSUNNY   75  72  90 CALM      29.87F
$$

OHZ009>014-019>023-028>033-038-089-280000-
   NORTHEAST OHIO

CITY           SKY/WX    TMP DP  RH WIND       PRES   REMARKS
CLE-HOPKINS    FAIR      82  64  54 N9        29.90R
CLE-LAKEFRONT  FAIR      78  67  68 NE10      29.87S
CUY CO. ARPT   SUNNY     82  63  51 NE8       29.90S
LORAIN-ELYRIA  FAIR      80  60  50 N7        29.89S
ASHTABULA      FAIR      79  65  62 N5        29.90S
AKRON-CANTON   PTSUNNY   79  70  74 NW5       29.89S
WOOSTER        CLOUDY    74  69  85 SW7       29.90S
MANSFIELD      CLOUDY    74  72  93 E5        29.91S FOG
YOUNGSTOWN     FAIR      83  62  49 NE7       29.88F
$$

OHZ042-051>053-060>062-070>072-077>081-280000-
  SOUTHWEST OHIO

CITY           SKY/WX    TMP DP  RH WIND       PRES   REMARKS
CINC-COVINGTON PTSUNNY   82  73  74 N5        29.88S
CINC-LUNKEN    PTSUNNY   84  71  65 NW9       29.86F
HAMILTON       CLOUDY    80  74  81 W6        29.88S
DAYTON         NOT AVBL
WRIGHT-PAT AFB NOT AVBL
DAYTON GENERAL CLOUDY    77  73  87 SW8       29.87S
WILMINGTON     CLOUDY    75  74  96 W10       29.88R
$$

OHZ036-037-039>041-045>050-054>059-063>069-073>076-082>088-280000-
  CENTRAL AND SOUTHEAST OHIO

CITY           SKY/WX    TMP DP  RH WIND       PRES   REMARKS
COLUMBUS       CLOUDY    72  72 100 E8        29.87S FOG
OSU AIRPORT    CLOUDY    72  72 100 E9        29.87S FOG
BOLTON FIELD   NOT AVBL
RICKENBACK AFB NOT AVBL
NEWARK         CLOUDY    72  69  90 SE5       29.89S
MARION         CLOUDY    79  70  74 E7        29.89R
LANCASTER      LGT RAIN  72  72 100 SE6       29.88S FOG
ZANESVILLE     CLOUDY    73  69  87 SE7       29.90S
NEW PHILLY     RAIN      73  72  96 SW7       29.90R VSB 1
$$




USA.gov is the U.S. government's official web portal to all federal, state and local government web resources and services.